Lay Lake Weather Center

Moon Phase Calendar



Lay Lake Water Level
Online Cameras

 


      

Current Conditions in Shelby
2/28/2024 7:30:12 AM

69°F
Feels Like 69
Clouds
Humidity
81%
Pressure
29.97"
Wind
4 mph (W)
Dew Point
63°F
UV Index
1/10 (Low)
Visibility
6 mi

Hourly Forecast

Date & Time Wed, Feb 28
7:00 AM
Wed, Feb 28
8:00 AM
Wed, Feb 28
9:00 AM
Wed, Feb 28
10:00 AM
Wed, Feb 28
11:00 AM
Wed, Feb 28
12:00 PM
Wed, Feb 28
1:00 PM
Wed, Feb 28
2:00 PM
Wed, Feb 28
3:00 PM
Wed, Feb 28
4:00 PM
Wed, Feb 28
5:00 PM
Wed, Feb 28
6:00 PM
Wed, Feb 28
7:00 PM
Wed, Feb 28
8:00 PM
Wed, Feb 28
9:00 PM
Wed, Feb 28
10:00 PM
Wed, Feb 28
11:00 PM
Thu, Feb 29
12:00 AM
Thu, Feb 29
1:00 AM
Thu, Feb 29
2:00 AM
Thu, Feb 29
3:00 AM
Thu, Feb 29
4:00 AM
Thu, Feb 29
5:00 AM
Thu, Feb 29
6:00 AM
Thu, Feb 29
7:00 AM
Thu, Feb 29
8:00 AM
Thu, Feb 29
9:00 AM
Thu, Feb 29
10:00 AM
Thu, Feb 29
11:00 AM
Thu, Feb 29
12:00 PM
Thu, Feb 29
1:00 PM
Thu, Feb 29
2:00 PM
Thu, Feb 29
3:00 PM
Thu, Feb 29
4:00 PM
Thu, Feb 29
5:00 PM
Thu, Feb 29
6:00 PM
Thu, Feb 29
7:00 PM
Thu, Feb 29
8:00 PM
Thu, Feb 29
9:00 PM
Thu, Feb 29
10:00 PM
Thu, Feb 29
11:00 PM
Fri, Mar 1
12:00 AM
Fri, Mar 1
1:00 AM
Fri, Mar 1
2:00 AM
Fri, Mar 1
3:00 AM
Fri, Mar 1
4:00 AM
Fri, Mar 1
5:00 AM
Fri, Mar 1
6:00 AM
Condition
Clouds

Clouds

Clouds

Clouds

Clouds

Clouds

Rain

Rain

Rain

Clouds

Clouds

Clouds

Clouds

Clouds

Clouds

Clouds

Clouds

Clouds

Clouds

Clouds

Clouds

Clouds

Clouds

Clouds

Clouds

Clouds

Clouds

Clouds

Clouds

Clouds

Clouds

Clouds

Clouds

Clouds

Clouds

Clouds

Clouds

Clouds

Clouds

Clouds

Clouds

Clouds

Clouds

Clouds

Clouds

Clouds

Rain

Rain
Temperature 68°F69°F69°F70°F71°F70°F69°F54°F50°F48°F46°F44°F44°F44°F43°F43°F42°F41°F40°F39°F38°F38°F38°F37°F37°F40°F43°F46°F50°F52°F54°F55°F53°F52°F51°F50°F51°F51°F50°F50°F50°F49°F47°F49°F49°F49°F49°F48°F
Feels Like 69°F69°F69°F70°F71°F71°F70°F53°F49°F42°F40°F38°F39°F38°F37°F37°F36°F35°F34°F32°F32°F31°F32°F32°F32°F34°F38°F42°F46°F49°F51°F51°F50°F50°F48°F48°F49°F48°F47°F47°F47°F47°F45°F46°F47°F46°F47°F45°F
Cloudiness 99%99%99%99%99%100%100%100%100%100%100%100%100%100%99%99%99%99%100%100%100%100%100%100%100%100%100%100%100%100%100%100%100%100%100%100%100%100%100%100%100%100%100%100%100%100%100%100%
Visibility 6 mi6 mi6 mi6 mi6 mi6 mi6 mi6 mi6 mi6 mi6 mi6 mi6 mi6 mi6 mi6 mi6 mi6 mi6 mi6 mi6 mi6 mi6 mi6 mi6 mi6 mi6 mi6 mi6 mi6 mi6 mi6 mi6 mi6 mi6 mi6 mi6 mi6 mi6 mi6 mi6 mi6 mi6 mi6 mi6 mi6 mi6 mi6 mi
Precipitation 0%0%0%0%0%4%64%98%100%80%80%80%0%0%0%0%0%0%0%0%0%0%0%0%0%0%0%0%0%0%0%0%0%0%0%0%0%0%0%0%0%0%2%0%0%0%36%50%
Humidity 82%81%79%77%74%76%79%88%85%82%77%77%75%71%68%64%61%59%59%58%55%54%53%56%58%51%43%39%36%34%34%35%46%52%53%55%54%53%55%60%65%69%73%69%66%66%75%85%
Dew Point 63°F63°F62°F62°F62°F62°F62°F50°F46°F43°F39°F37°F37°F35°F33°F31°F29°F28°F26°F25°F23°F23°F22°F23°F24°F23°F22°F23°F24°F24°F26°F27°F33°F35°F34°F34°F35°F34°F34°F36°F38°F39°F39°F39°F38°F38°F41°F44°F
Pressure 29.94"29.97"29.97"29.97"29.94"29.97"29.97"30.06"30.12"30.18"30.21"30.27"30.27"30.3"30.33"30.33"30.36"30.33"30.39"30.36"30.36"30.36"30.39"30.42"30.42"30.45"30.45"30.42"30.39"30.36"30.36"30.3"30.33"30.36"30.33"30.3"30.3"30.3"30.3"30.3"30.3"30.27"30.27"30.24"30.24"30.21"30.24"30.24"
Wind Speed 11.5 mph11.3 mph13.4 mph14 mph14.4 mph12.9 mph11.8 mph13.9 mph14.4 mph13.3 mph13.2 mph12 mph10.3 mph10.6 mph10.3 mph9.6 mph9 mph10.3 mph8.3 mph10.3 mph8 mph9.6 mph8.3 mph7 mph7.5 mph9.2 mph9.8 mph9.5 mph8.7 mph7.9 mph6.7 mph8.1 mph3 mph2.2 mph4.1 mph5.2 mph6.9 mph6.4 mph5.9 mph6.1 mph5.6 mph5 mph4.3 mph6.3 mph6 mph7 mph5.1 mph7.2 mph
Wind
Direction
209°
SSW
221°
SW
220°
SW
221°
SW
231°
SW
233°
SW
255°
WSW
336°
NNW
339°
NNW
352°
N
356°
N

N

N
11°
N

N
14°
NNE
10°
N
19°
NNE
10°
N
22°
NNE
16°
NNE
25°
NNE
26°
NNE
24°
NNE
26°
NNE
24°
NNE
30°
NNE
40°
NE
47°
NE
54°
NE
68°
ENE
70°
ENE
57°
ENE
301°
WNW
89°
E
83°
E
110°
ESE
125°
SE
135°
SE
130°
SE
110°
ESE
92°
E
83°
E
85°
E
109°
ESE
110°
ESE
106°
ESE
107°
ESE

Daily Forecast

Date High Low Precip. Humidity
Today
Feb 28

Rain
71 °F
42 °F
100%
74%
Thursday
Feb 29

Clouds
55 °F
37 °F
0%
36%
Friday
Mar 1

Rain
53 °F
47 °F
100%
95%
Saturday
Mar 2

Rain
63 °F
52 °F
47%
82%
Sunday
Mar 3

Rain
70 °F
56 °F
66%
71%
Monday
Mar 4

Rain
65 °F
61 °F
100%
94%
Tuesday
Mar 5

Rain
67 °F
61 °F
100%
86%
Wednesday
Mar 6

Rain
70 °F
60 °F
100%
88%
Thursday
Mar 7

Rain
66 °F
61 °F
100%
90%
Friday
Mar 8

Rain
70 °F
62 °F
100%
93%
Saturday
Mar 9

Rain
66 °F
50 °F
100%
54%
Sunday
Mar 10

Clouds
69 °F
50 °F
0%
46%
Monday
Mar 11

Clouds
72 °F
50 °F
0%
41%
Tuesday
Mar 12

Clouds
71 °F
56 °F
0%
48%
Wednesday
Mar 13

Rain
70 °F
57 °F
69%
78%
Thursday
Mar 14

Clouds
78 °F
58 °F
20%
54%

Temperature 8-14 Day Outlook



Precipitation 8-14 Day Outlook




Quick Links
Lay Lake News
Lay Lake Photos
Lay Lake Videos




About Us
Contact Us
Site Map
Search Site
Advertise With Us
   
www.LayLake.info
THE LAY LAKE WEBSITE

Copyright 2024, Lakes Online
Privacy    |    Legal